Location: ???
(35.5616°N, 139.7977°E)
Time: 19:20:12
(UTC+00:00)

H-2A R/B - Pass Details

Date: 17 November 2025
Orbit: 264 x 28125 km, 28.4° (Epoch: 08 December)

Event Time Altitude Azimuth Distance (km) Brightness Sun altitude
Exits shadow 20:31:12 - 241° (WSW) 1,628 3.8 -10.0°
Reaches altitude 10° 20:31:35 10° 236° (SW) 1,495 3.7 -9.9°
Maximum altitude 20:34:09 27° 173° (S) 1,313 4.0 -9.4°
Drops below altitude 10° 20:41:16 10° 118° (ESE) 4,343 8.0 -8.0°
Sets 20:49:57 0° 111° (ESE) 8,111 10.6 -6.4°
